Terminal Aerodrome Forecast
Issued by NWS Memphis, TN

Home | Current Version | Previous Version | Text Only | Print | Product List | Glossary On
Versions: 1 2 3 4 5 6 7 8 9 10 11 12 13 14
000
FTUS44 KMEG 260500
TAFJBR
TAF
KJBR 260520Z 2606/2706 00000KT P6SM SKC
      TEMPO 2609/2612 3SM BR
     FM261500 19008KT P6SM SCT040
     FM270000 19005KT P6SM SKC=

USA.gov is the U.S. government's official web portal to all federal, state and local government web resources and services.